CW9425 Weather Reports


time (UTC)temp
C
wind
direction
speed
KPH
gust
KPH
rain 1hr
cm
rain 24hr
cm
rain mn
cm
humidity
%
barometer
mb
20260906234510 35 197 4.8 0.0 0.00 0.00 0.00 23 1005.6
20260906234031 35 214 3.2 0.0 0.00 0.00 0.00 22 1005.7
20260906233544 35 211 1.6 0.0 0.00 0.00 0.00 22 1005.6
20260906233057 35 192 0.0 0.0 0.00 0.00 0.00 22 1005.7
20260906232509 35 192 0.0 0.0 0.00 0.00 0.00 22 1005.7
20260906232031 35 147 0.0 0.0 0.00 0.00 0.00 21 1005.7
20260906231558 35 147 1.6 0.0 0.00 0.00 0.00 22 1005.8
20260906231018 35 98 3.2 0.0 0.00 0.00 0.00 22 1005.8
20260906230532 35 206 3.2 0.0 0.00 0.00 0.00 21 1005.8
20260906230057 35 222 1.6 0.0 0.00 0.00 0.00 22 1005.8
20260906225600 35 215 3.2 0.0 0.00 0.00 0.00 21 1005.8
20260906225025 35 214 1.6 0.0 0.00 0.00 0.00 21 1005.8
20260906224543 35 147 1.6 0.0 0.00 0.00 0.00 22 1005.7
20260906224056 35 147 3.2 0.0 0.00 0.00 0.00 21 1005.8
20260906223523 35 198 3.2 0.0 0.00 0.00 0.00 22 1005.9
20260906223039 35 233 3.2 0.0 0.00 0.00 0.00 22 1005.9
20260906222551 35 200 3.2 0.0 0.00 0.00 0.00 22 1006.0
20260906222016 35 199 1.6 0.0 0.00 0.00 0.00 21 1006.0
20260906221532 35 203 3.2 0.0 0.00 0.00 0.00 21 1006.1
20260906221044 35 203 4.8 0.0 0.00 0.00 0.00 21 1006.2
20260906220557 35 196 3.2 0.0 0.00 0.00 0.00 21 1006.4
20260906220100 35 199 1.6 0.0 0.00 0.00 0.00 21 1006.4
20260906215516 34 191 3.2 0.0 0.00 0.00 0.00 21 1006.5
20260906215027 34 294 6.4 0.0 0.00 0.00 0.00 21 1006.6
20260906214542 34 261 6.4 0.0 0.00 0.00 0.00 21 1006.6
20260906214056 35 277 3.2 0.0 0.00 0.00 0.00 21 1006.7
20260906213505 35 195 1.6 0.0 0.00 0.00 0.00 21 1006.9
20260906213018 35 101 3.2 0.0 0.00 0.00 0.00 21 1007.1
20260906212531 35 225 4.8 0.0 0.00 0.00 0.00 20 1007.3
20260906212047 35 256 4.8 0.0 0.00 0.00 0.00 20 1007.3
20260906211602 35 256 4.8 0.0 0.00 0.00 0.00 21 1007.5
20260906211017 35 295 4.8 0.0 0.00 0.00 0.00 20 1007.6
20260906210545 35 230 3.2 0.0 0.00 0.00 0.00 21 1007.6
20260906210115 35 259 1.6 0.0 0.00 0.00 0.00 21 1007.7
20260906205508 34 280 3.2 0.0 0.00 0.00 0.00 20 1007.8
20260906205019 34 280 3.2 0.0 0.00 0.00 0.00 21 1007.9
20260906204533 34 252 3.2 0.0 0.00 0.00 0.00 21 1008.0
20260906204048 34 252 3.2 0.0 0.00 0.00 0.00 21 1008.1
20260906203604 34 285 1.6 0.0 0.00 0.00 0.00 21 1008.2
20260906203015 33 285 3.2 0.0 0.00 0.00 0.00 21 1008.2
20260906202543 33 284 4.8 0.0 0.00 0.00 0.00 21 1008.3
20260906202102 33 284 4.8 0.0 0.00 0.00 0.00 20 1008.3
20260906201518 33 251 4.8 0.0 0.00 0.00 0.00 21 1008.4
20260906201034 33 278 4.8 0.0 0.00 0.00 0.00 20 1008.5
20260906200549 34 267 3.2 0.0 0.00 0.00 0.00 20 1008.5
20260906200001 34 294 1.6 0.0 0.00 0.00 0.00 20 1008.5
20260906195523 34 221 1.6 0.0 0.00 0.00 0.00 20 1008.5
20260906195038 34 219 3.2 0.0 0.00 0.00 0.00 20 1008.6
20260906194553 34 219 3.2 0.0 0.00 0.00 0.00 20 1008.8
20260906194014 34 204 3.2 0.0 0.00 0.00 0.00 21 1008.7
20260906193528 33 284 3.2 0.0 0.00 0.00 0.00 21 1008.7
20260906193042 33 284 4.8 0.0 0.00 0.00 0.00 21 1008.8
20260906192553 33 271 1.6 0.0 0.00 0.00 0.00 22 1008.9
20260906192018 33 257 3.2 0.0 0.00 0.00 0.00 22 1009.0
20260906191541 33 257 4.8 0.0 0.00 0.00 0.00 21 1009.1
20260906191101 33 257 4.8 0.0 0.00 0.00 0.00 22 1009.1
20260906190529 32 205 4.8 0.0 0.00 0.00 0.00 23 1009.2
20260906190042 32 253 3.2 0.0 0.00 0.00 0.00 23 1009.3
20260906185554 32 236 3.2 0.0 0.00 0.00 0.00 23 1009.4
20260906185006 32 236 3.2 0.0 0.00 0.00 0.00 24 1009.7
20260906184535 32 240 3.2 0.0 0.00 0.00 0.00 24 1009.7
20260906184045 32 256 3.2 0.0 0.00 0.00 0.00 25 1009.8
20260906183558 31 269 4.8 0.0 0.00 0.00 0.00 24 1009.8
20260906183007 32 256 3.2 0.0 0.00 0.00 0.00 25 1010.0
20260906182522 32 275 1.6 0.0 0.00 0.00 0.00 27 1010.0
20260906182045 31 281 1.6 0.0 0.00 0.00 0.00 28 1010.1
20260906181558 31 273 1.6 0.0 0.00 0.00 0.00 28 1010.2
20260906181017 31 272 1.6 0.0 0.00 0.00 0.00 27 1010.4
20260906180535 31 272 1.6 0.0 0.00 0.00 0.00 29 1010.5
20260906180047 31 272 1.6 0.0 0.00 0.00 0.00 28 1010.5
20260906175559 31 288 1.6 0.0 0.00 0.00 0.00 29 1010.6
20260906175021 31 288 1.6 0.0 0.00 0.00 0.00 28 1010.7
20260906174536 31 288 1.6 0.0 0.00 0.00 0.00 28 1010.8
20260906174053 31 298 0.0 0.0 0.00 0.00 0.00 29 1010.8
20260906173517 31 298 0.0 0.0 0.00 0.00 0.00 29 1010.9
20260906173032 31 298 0.0 0.0 0.00 0.00 0.00 30 1011.1
20260906172552 30 310 0.0 0.0 0.00 0.00 0.00 30 1011.0
20260906172102 30 310 0.0 0.0 0.00 0.00 0.00 30 1011.1
20260906171522 29 310 0.0 0.0 0.00 0.00 0.00 31 1011.1
20260906171040 28 310 0.0 0.0 0.00 0.00 0.00 32 1011.1
20260906170507 28 310 0.0 0.0 0.00 0.00 0.00 32 1011.2
20260906170019 28 313 0.0 0.0 0.00 0.00 0.00 33 1011.2
20260906165532 27 313 0.0 0.0 0.00 0.00 0.00 33 1011.2
20260906165045 27 313 0.0 0.0 0.00 0.00 0.00 34 1011.2
20260906164557 26 313 0.0 0.0 0.00 0.00 0.00 36 1011.3
20260906164013 26 314 0.0 0.0 0.00 0.00 0.00 37 1011.4
20260906163536 25 314 0.0 0.0 0.00 0.00 0.00 37 1011.4
20260906163050 25 298 0.0 0.0 0.00 0.00 0.00 37 1011.4
20260906162610 25 298 0.0 0.0 0.00 0.00 0.00 38 1011.4
20260906162017 25 298 0.0 0.0 0.00 0.00 0.00 38 1011.4
20260906161543 24 298 0.0 0.0 0.00 0.00 0.00 39 1011.4
20260906161055 24 298 0.0 0.0 0.00 0.00 0.00 40 1011.3
20260906160509 24 298 0.0 0.0 0.00 0.00 0.00 40 1011.4
20260906160033 23 298 0.0 0.0 0.00 0.00 0.00 41 1011.5
20260906155547 23 298 0.0 0.0 0.00 0.00 0.00 40 1011.4
20260906155058 23 298 0.0 0.0 0.00 0.00 0.00 40 1011.3
20260906154516 23 298 0.0 0.0 0.00 0.00 0.00 40 1011.4
20260906154032 23 298 0.0 0.0 0.00 0.00 0.00 40 1011.4
20260906153544 23 298 0.0 0.0 0.00 0.00 0.00 40 1011.4
20260906153100 23 298 0.0 0.0 0.00 0.00 0.00 40 1011.4
20260906152525 23 298 0.0 0.0 0.00 0.00 0.00 40 1011.4
20260906152041 23 298 0.0 0.0 0.00 0.00 0.00 41 1011.4
20260906151554 23 298 0.0 0.0 0.00 0.00 0.00 41 1011.4
20260906151018 22 298 0.0 0.0 0.00 0.00 0.00 41 1011.4
20260906150530 22 298 0.0 0.0 0.00 0.00 0.00 41 1011.4
20260906150043 22 298 0.0 0.0 0.00 0.00 0.00 41 1011.4
20260906145558 22 298 0.0 0.0 0.00 0.00 0.00 41 1011.4
20260906145024 22 298 1.6 0.0 0.00 0.00 0.00 42 1011.4
20260906144541 22 296 0.0 0.0 0.00 0.00 0.00 42 1011.3
20260906144053 22 300 0.0 0.0 0.00 0.00 0.00 42 1011.3
20260906143503 22 301 0.0 0.0 0.00 0.00 0.00 42 1011.3
20260906143025 22 312 0.0 0.0 0.00 0.00 0.00 43 1011.2
20260906142547 21 313 0.0 0.0 0.00 0.00 0.00 44 1011.2
20260906142101 21 313 0.0 0.0 0.00 0.00 0.00 45 1011.2
20260906141523 21 313 0.0 0.0 0.00 0.00 0.00 46 1011.1
20260906141037 20 313 0.0 0.0 0.00 0.00 0.00 46 1011.2
20260906140550 20 313 0.0 0.0 0.00 0.00 0.00 47 1011.1
20260906140011 20 313 0.0 0.0 0.00 0.00 0.00 46 1011.1
20260906135525 20 313 0.0 0.0 0.00 0.00 0.00 46 1011.1
20260906135041 20 313 0.0 0.0 0.00 0.00 0.00 46 1011.1
20260906134607 20 313 0.0 0.0 0.00 0.00 0.00 46 1011.0
20260906134018 20 313 0.0 0.0 0.00 0.00 0.00 46 1011.0
20260906133535 20 313 0.0 0.0 0.00 0.00 0.00 46 1011.0
20260906133053 20 313 0.0 0.0 0.00 0.00 0.00 45 1010.9
20260906132600 20 313 0.0 0.0 0.00 0.00 0.00 45 1011.0
20260906132021 19 313 0.0 0.0 0.00 0.00 0.00 45 1010.9
20260906131538 19 313 0.0 0.0 0.00 0.00 0.00 45 1011.0
20260906131050 19 313 0.0 0.0 0.00 0.00 0.00 45 1011.0
20260906130603 19 280 0.0 0.0 0.00 0.00 0.00 45 1010.9
20260906130025 19 280 0.0 0.0 0.00 0.00 0.00 45 1010.8
20260906125541 19 277 0.0 0.0 0.00 0.00 0.00 45 1010.8
20260906125054 19 273 0.0 0.0 0.00 0.00 0.00 45 1010.7
20260906124517 19 272 0.0 0.0 0.00 0.00 0.00 45 1010.7
20260906124036 19 272 0.0 0.0 0.00 0.00 0.00 46 1010.7
20260906123549 19 272 0.0 0.0 0.00 0.00 0.00 46 1010.7
20260906123104 20 272 0.0 0.0 0.00 0.00 0.00 46 1010.7
20260906122519 20 273 0.0 0.0 0.00 0.00 0.00 46 1010.7
20260906122040 20 272 0.0 0.0 0.00 0.00 0.00 47 1010.5
20260906121605 20 272 0.0 0.0 0.00 0.00 0.00 48 1010.5
20260906121012 20 273 0.0 0.0 0.00 0.00 0.00 48 1010.5
20260906120529 20 273 0.0 0.0 0.00 0.00 0.00 48 1010.5
20260906120042 20 273 0.0 0.0 0.00 0.00 0.00 48 1010.5
20260906115555 20 273 0.0 0.0 0.00 0.00 0.00 47 1010.4
20260906115013 20 272 0.0 0.0 0.00 0.00 0.00 47 1010.5
20260906114535 20 272 0.0 0.0 0.00 0.00 0.00 47 1010.5
20260906114051 20 273 0.0 0.0 0.00 0.00 0.00 46 1010.5
20260906113605 20 272 0.0 0.0 0.00 0.00 0.00 46 1010.4
20260906113015 20 272 0.0 0.0 0.00 0.00 0.00 46 1010.5
20260906112535 20 272 0.0 0.0 0.00 0.00 0.00 46 1010.6
20260906112049 21 272 0.0 0.0 0.00 0.00 0.00 46 1010.6
20260906111602 21 273 0.0 0.0 0.00 0.00 0.00 45 1010.6
20260906111013 21 272 0.0 0.0 0.00 0.00 0.00 44 1010.5
20260906110540 21 272 0.0 0.0 0.00 0.00 0.00 44 1010.4
20260906110051 21 272 0.0 0.0 0.00 0.00 0.00 44 1010.5
20260906105503 21 272 0.0 0.0 0.00 0.00 0.00 45 1010.7
20260906105018 21 272 0.0 0.0 0.00 0.00 0.00 45 1010.7
20260906104529 21 272 0.0 0.0 0.00 0.00 0.00 44 1010.7
20260906104042 21 273 0.0 0.0 0.00 0.00 0.00 45 1010.7
20260906103504 21 273 0.0 0.0 0.00 0.00 0.00 45 1010.6
20260906103042 21 272 0.0 0.0 0.00 0.00 0.00 45 1010.6
20260906102548 21 273 0.0 0.0 0.00 0.00 0.00 46 1010.6
20260906102056 21 273 0.0 0.0 0.00 0.00 0.00 45 1010.7
20260906101506 21 272 0.0 0.0 0.00 0.00 0.00 44 1010.7
20260906101036 21 273 0.0 0.0 0.00 0.00 0.00 45 1010.7
20260906100547 21 272 0.0 0.0 0.00 0.00 0.00 46 1010.7
20260906100057 21 272 0.0 0.0 0.00 0.00 0.00 46 1010.7
20260906095509 21 273 0.0 0.0 0.00 0.00 0.00 47 1010.6
20260906095032 21 272 0.0 0.0 0.00 0.00 0.00 45 1010.6
20260906094544 21 272 0.0 0.0 0.00 0.00 0.00 44 1010.5
20260906094003 21 272 0.0 0.0 0.00 0.00 0.00 43 1010.5
20260906093525 21 272 0.0 0.0 0.00 0.00 0.00 43 1010.4
20260906093049 21 272 0.0 0.0 0.00 0.00 0.00 42 1010.4
20260906092551 21 272 0.0 0.0 0.00 0.00 0.00 42 1010.2
20260906092104 21 272 0.0 0.0 0.00 0.00 0.00 43 1010.2
20260906091515 21 272 0.0 0.0 0.00 0.00 0.00 42 1010.2
20260906091038 21 272 0.0 0.0 0.00 0.00 0.00 44 1010.2
20260906090551 21 273 0.0 0.0 0.00 0.00 0.00 43 1010.1
20260906090104 21 273 0.0 0.0 0.00 0.00 0.00 43 1010.0
20260906085515 21 272 0.0 0.0 0.00 0.00 0.00 42 1010.0
20260906085036 21 272 0.0 0.0 0.00 0.00 0.00 43 1010.0
20260906084549 21 272 0.0 0.0 0.00 0.00 0.00 43 1010.1
20260906084014 21 273 0.0 0.0 0.00 0.00 0.00 43 1010.0
20260906083524 21 272 0.0 0.0 0.00 0.00 0.00 42 1010.2
20260906083040 21 273 0.0 0.0 0.00 0.00 0.00 42 1010.2
20260906082502 21 272 0.0 0.0 0.00 0.00 0.00 42 1010.3
20260906082025 21 272 0.0 0.0 0.00 0.00 0.00 42 1010.3
20260906081539 21 273 0.0 0.0 0.00 0.00 0.00 42 1010.3
20260906081055 21 272 0.0 0.0 0.00 0.00 0.00 42 1010.3
20260906080604 21 273 0.0 0.0 0.00 0.00 0.00 42 1010.3
20260906080012 21 273 0.0 0.0 0.00 0.00 0.00 42 1010.5
20260906075531 21 272 0.0 0.0 0.00 0.00 0.00 42 1010.5
20260906075052 21 272 0.0 0.0 0.00 0.00 0.00 42 1010.6
20260906074516 21 272 0.0 0.0 0.00 0.00 0.00 42 1010.6
20260906074031 21 273 0.0 0.0 0.00 0.00 0.00 42 1010.6
20260906073544 21 273 0.0 0.0 0.00 0.00 0.00 43 1010.6
20260906073059 21 273 0.0 0.0 0.00 0.00 0.00 43 1010.6
20260906072511 21 272 0.0 0.0 0.00 0.00 0.00 44 1010.7
20260906072028 22 273 0.0 0.0 0.00 0.00 0.00 44 1010.6
20260906071537 22 272 0.0 0.0 0.00 0.00 0.00 44 1010.7
20260906071053 22 273 0.0 0.0 0.00 0.00 0.00 45 1010.7
20260906070602 22 273 0.0 0.0 0.00 0.00 0.00 45 1010.5
20260906070025 22 273 0.0 0.0 0.00 0.00 0.00 45 1010.5
20260906065538 22 272 0.0 0.0 0.00 0.00 0.00 44 1010.6
20260906065051 22 273 0.0 0.0 0.00 0.00 0.00 44 1010.7
20260906064604 22 272 0.0 0.0 0.00 0.00 0.00 43 1010.7
20260906064013 22 273 0.0 0.0 0.00 0.00 0.00 42 1010.6
20260906063535 22 273 0.0 0.0 0.00 0.00 0.00 42 1010.6
20260906063049 22 272 0.0 0.0 0.00 0.00 0.00 41 1010.7
20260906062602 22 272 0.0 0.0 0.00 0.00 0.00 41 1010.7
20260906062019 22 272 0.0 0.0 0.00 0.00 0.00 41 1010.6
20260906061535 22 272 0.0 0.0 0.00 0.00 0.00 41 1010.7
20260906061049 23 273 0.0 0.0 0.00 0.00 0.00 40 1010.6
20260906060507 23 273 0.0 0.0 0.00 0.00 0.00 39 1010.5
20260906060033 23 272 0.0 0.0 0.00 0.00 0.00 39 1010.4
20260906055545 23 272 0.0 0.0 0.00 0.00 0.00 39 1010.4
20260906055059 23 272 0.0 0.0 0.00 0.00 0.00 39 1010.3
20260906054522 23 272 0.0 0.0 0.00 0.00 0.00 39 1010.2
20260906054023 23 272 0.0 0.0 0.00 0.00 0.00 39 1010.2
20260906053539 23 273 0.0 0.0 0.00 0.00 0.00 38 1010.2
20260906053055 23 272 0.0 0.0 0.00 0.00 0.00 38 1010.2
20260906052518 24 272 0.0 0.0 0.00 0.00 0.00 37 1010.1
20260906052035 24 272 0.0 0.0 0.00 0.00 0.00 37 1010.2
20260906051551 24 273 0.0 0.0 0.00 0.00 0.00 36 1010.1
20260906051104 24 272 0.0 0.0 0.00 0.00 0.00 36 1010.1
20260906050521 25 273 0.0 0.0 0.00 0.00 0.00 36 1010.0
20260906050040 25 273 0.0 0.0 0.00 0.00 0.00 36 1010.1
20260906045552 25 273 0.0 0.0 0.00 0.00 0.00 35 1010.0
20260906045105 25 273 0.0 0.0 0.00 0.00 0.00 36 1010.0
20260906044513 25 272 0.0 0.0 0.00 0.00 0.00 36 1010.0
20260906044039 25 273 0.0 0.0 0.00 0.00 0.00 36 1010.0
20260906043555 25 272 0.0 0.0 0.00 0.00 0.00 36 1010.1
20260906043021 25 272 0.0 0.0 0.00 0.00 0.00 36 1010.0
20260906042532 25 272 0.0 0.0 0.00 0.00 0.00 36 1010.1
20260906042046 25 272 0.0 0.0 0.00 0.00 0.00 35 1010.0
20260906041504 25 272 0.0 0.0 0.00 0.00 0.00 35 1010.0
20260906041027 25 273 0.0 0.0 0.00 0.00 0.00 35 1010.1
20260906040542 25 272 0.0 0.0 0.00 0.00 0.00 35 1010.1
20260906040056 25 272 0.0 0.0 0.00 0.00 0.00 35 1010.1
20260906035519 25 272 0.0 0.0 0.00 0.00 0.00 35 1010.1
20260906035042 25 272 0.0 0.0 0.00 0.00 0.00 35 1010.2
20260906034603 26 272 0.0 0.0 0.00 0.00 0.00 34 1010.1
20260906034014 26 272 0.0 0.0 0.00 0.00 0.00 34 1010.1
20260906033531 26 272 0.0 0.0 0.00 0.00 0.00 35 1010.1
20260906033049 26 272 0.0 0.0 0.00 0.00 0.00 35 1010.0
20260906032505 26 272 0.0 0.0 0.00 0.00 0.00 35 1009.9
20260906032028 26 272 0.0 0.0 0.00 0.00 0.00 35 1009.9
20260906031545 26 272 0.0 0.0 0.00 0.00 0.00 35 1009.8
20260906031059 26 272 0.0 0.0 0.00 0.00 0.00 34 1009.7
20260906030507 26 272 0.0 0.0 0.00 0.00 0.00 34 1009.7
20260906030027 26 272 0.0 0.0 0.00 0.00 0.00 35 1009.7
20260906025542 26 271 0.0 0.0 0.00 0.00 0.00 35 1009.5
20260906025106 26 271 0.0 0.0 0.00 0.00 0.00 36 1009.4
20260906024516 27 271 0.0 0.0 0.00 0.00 0.00 35 1009.3
20260906024041 27 271 0.0 0.0 0.00 0.00 0.00 35 1009.2
20260906023553 27 271 0.0 0.0 0.00 0.00 0.00 35 1009.2
20260906023010 27 271 0.0 0.0 0.00 0.00 0.00 34 1009.2
20260906022524 27 271 0.0 0.0 0.00 0.00 0.00 34 1009.2
20260906022039 27 271 0.0 0.0 0.00 0.00 0.00 33 1009.1
20260906021549 28 271 0.0 0.0 0.00 0.00 0.00 33 1009.0
20260906021103 28 271 0.0 0.0 0.00 0.00 0.00 33 1009.0
20260906020524 28 271 0.0 0.0 0.00 0.00 0.00 32 1009.0
20260906020037 28 271 0.0 0.0 0.00 0.00 0.00 32 1009.0
20260906015549 28 271 0.0 0.0 0.00 0.00 0.00 32 1008.9
20260906015102 28 271 0.0 0.0 0.00 0.00 0.00 31 1008.9
20260906014516 29 271 1.6 0.0 0.00 0.00 0.00 31 1008.8
20260906014034 29 271 1.6 0.0 0.00 0.00 0.00 31 1008.8
20260906013546 30 271 0.0 0.0 0.00 0.00 0.00 31 1008.7
20260906013100 30 271 0.0 0.0 0.00 0.00 0.00 31 1008.7
20260906012521 30 271 0.0 0.0 0.00 0.00 0.00 30 1008.8
20260906012031 30 271 0.0 0.0 0.00 0.00 0.00 30 1008.8
20260906011544 30 271 0.0 0.0 0.00 0.00 0.00 30 1008.7
20260906011010 30 271 3.2 0.0 0.00 0.00 0.00 30 1008.8
20260906010526 31 271 3.2 0.0 0.00 0.00 0.00 29 1008.9
20260906010039 31 271 1.6 0.0 0.00 0.00 0.00 29 1008.9
20260906005552 31 225 1.6 0.0 0.00 0.00 0.00 29 1008.8
20260906005002 31 225 3.2 0.0 0.00 0.00 0.00 29 1008.7
20260906004522 31 232 3.2 0.0 0.00 0.00 0.00 29 1008.8
20260906004037 31 231 4.8 0.0 0.00 0.00 0.00 28 1008.9
20260906003550 31 228 4.8 0.0 0.00 0.00 0.00 28 1008.8
20260906003023 32 252 3.2 0.0 0.00 0.00 0.00 28 1008.8
20260906002538 32 243 1.6 0.0 0.00 0.00 0.00 28 1008.8
20260906002052 32 243 3.2 0.0 0.00 0.00 0.00 29 1008.8
20260906001603 32 243 3.2 0.0 0.00 0.00 0.00 28 1008.8
20260906001025 32 242 4.8 0.0 0.00 0.00 0.00 28 1008.8
20260906000542 32 239 3.2 0.0 0.00 0.00 0.00 28 1008.8
20260906000058 32 233 1.6 0.0 0.00 0.00 0.00 28 1008.8
20260905235506 32 239 3.2 0.0 0.00 0.00 0.00 28 1008.7
20260905235032 32 239 4.8 0.0 0.00 0.00 0.00 28 1008.7